GFSMW_850_temp_000.txt.gz
Temp
18 18 19 19 19 19 19 19 19 19 18 18 18 18 18 18 18 18 17 16 15 14 14 14 14 14 13 13 13 12 12 12 11 11 11 11 12 12 12 12 12 12 12
18 18 18 19 19 19 19 19 19 18 19 19 18 17 17 17 17 16 15 15 15 14 14 13 13 13 13 13 13 12 12 12 11 11 10 9 11 11 12 12 13 14 13
17 17 18 18 18 19 19 19 19 18 17 18 18 17 16 16 15 15 14 14 13 13 13 13 13 13 13 13 13 13 12 12 12 11 10 10 11 12 12 12 12 12 12
16 16 16 17 17 17 17 17 17 17 16 16 16 16 15 15 14 14 14 14 13 13 13 13 13 13 13 13 13 13 13 12 12 12 11 11 10 10 11 12 11 11 11
16 15 15 16 16 16 16 16 16 16 15 15 15 14 14 13 13 13 13 13 13 12 12 12 12 12 12 13 13 12 12 12 12 12 12 12 11 11 10 10 11 11 11
15 15 15 15 15 15 15 15 15 14 14 14 14 13 13 13 13 13 13 12 12 12 12 12 12 12 11 11 12 12 12 12 11 11 11 11 11 11 10 10 10 10 12
16 15 15 15 14 14 14 13 13 13 12 12 12 12 12 12 12 11 11 11 11 11 11 11 11 11 11 11 11 10 11 11 11 11 10 10 11 11 11 10 11 11 11
16 16 15 14 13 13 13 12 12 12 12 12 12 12 12 11 11 11 11 10 10 10 10 10 10 11 11 11 11 10 10 10 10 10 10 10 10 10 10 10 10 10 10
16 15 14 13 12 12 12 12 12 11 11 11 11 11 11 11 10 10 10 10 9 9 9 9 9 10 9 10 9 10 10 10 10 9 9 9 9 9 10 10 9 9 9
14 14 13 12 11 11 11 11 11 11 11 11 11 10 10 10 10 10 9 9 8 8 8 8 8 8 8 8 8 8 8 8 8 8 8 9 9 9 9 9 9 9 9
14 13 12 11 11 11 10 10 10 10 11 11 10 10 10 9 9 9 8 8 8 7 7 7 6 6 6 6 6 6 6 6 6 6 6 7 7 7 7 8 8 8 8
13 12 11 11 10 10 10 10 10 10 10 9 9 9 9 9 9 8 7 7 6 6 6 6 5 5 4 4 4 4 4 4 5 5 5 5 5 5 6 6 6 6 7
12 11 11 10 10 10 10 10 9 9 9 9 8 8 7 7 6 6 5 5 5 5 5 5 4 4 4 3 3 3 3 4 4 4 4 4 4 4 5 4 5 5 5
11 11 10 10 9 9 9 9 8 8 8 8 7 7 6 5 5 5 5 5 4 4 4 3 3 3 2 3 3 2 3 3 3 3 4 4 4 4 3 3 3 4 4
11 10 10 9 9 8 8 8 8 7 7 6 5 5 4 4 4 4 4 3 3 3 2 2 2 2 1 1 2 2 2 2 2 3 3 3 3 3 2 2 2 2 2
10 9 9 8 8 8 8 7 7 6 5 4 4 4 4 3 3 3 2 2 2 2 2 2 1 1 1 1 1 1 0 1 1 2 2 2 2 2 2 2 2 2 1
10 9 8 8 7 7 6 6 5 4 3 3 3 3 3 2 2 1 1 1 0 0 -0 -0 -0 -1 -0 -0 -0 -1 -1 -1 -1 -1 0 1 1 -1 0 1 1 2 0
8 7 7 7 6 5 4 4 3 2 2 3 2 2 1 1 0 -0 -0 -1 -1 -1 -1 -1 -1 -2 -2 -1 -1 -1 -1 -1 -2 -2 -1 -1 -2 -2 -1 -1 -1 -0 -2
7 6 6 5 4 3 3 3 2 2 2 2 2 1 -0 -0 -1 -1 -1 -1 -2 -2 -3 -3 -3 -2 -2 -2 -3 -2 -2 -3 -4 -4 -3 -3 -3 -3 -3 -3 -3 -2 -1
5 5 5 4 3 3 2 2 2 2 1 1 0 -0 -1 -2 -2 -2 -2 -3 -3 -3 -3 -3 -3 -3 -4 -4 -4 -4 -5 -5 -5 -5 -4 -4 -4 -4 -4 -4 -3 -2 -2
6 5 4 4 3 2 2 2 1 0 -0 -1 -1 -1 -2 -2 -3 -3 -3 -3 -4 -4 -4 -4 -4 -5 -5 -5 -5 -5 -5 -5 -5 -5 -5 -5 -5 -5 -5 -4 -3 -2 -3
5 4 3 3 2 1 1 0 -0 -1 -1 -1 -2 -2 -2 -3 -3 -4 -4 -4 -4 -5 -5 -6 -7 -7 -7 -6 -6 -6 -5 -5 -5 -6 -6 -6 -5 -5 -4 -4 -4 -4 -4
3 3 2 1 -0 0 -1 -1 -1 -2 -2 -2 -2 -3 -3 -3 -4 -5 -5 -5 -6 -6 -7 -8 -8 -7 -7 -6 -7 -6 -6 -6 -6 -6 -6 -6 -6 -5 -5 -5 -5 -5 -4
2 1 1 0 -0 -1 -1 -1 -2 -2 -2 -3 -3 -3 -4 -5 -5 -5 -6 -6 -7 -8 -8 -8 -8 -8 -8 -7 -7 -7 -7 -7 -7 -6 -7 -7 -7 -7 -7 -6 -6 -6 -5
1 0 0 -0 -1 -1 -1 -2 -2 -3 -3 -3 -3 -4 -5 -6 -6 -6 -6 -7 -8 -9 -8 -8 -8 -8 -8 -7 -7 -7 -7 -7 -7 -7 -8 -8 -8 -8 -7 -6 -6 -6 -6
-0 -0 -1 -1 -1 -2 -2 -2 -3 -4 -4 -4 -4 -5 -6 -6 -7 -7 -7 -7 -8 -9 -8 -8 -8 -8 -8 -8 -7 -7 -7 -8 -8 -8 -9 -9 -9 -9 -8 -8 -7 -7 -7

GFSMW_850_temp_003.txt.gz
Temp
16 17 17 18 18 19 19 19 19 19 18 18 18 18 18 17 17 16 15 15 15 14 13 13 13 13 12 12 12 12 12 12 12 11 11 12 11 12 12 12 12 12 13
16 16 17 17 18 18 18 18 18 17 17 18 17 16 16 16 15 15 14 14 13 13 13 12 12 12 12 12 12 12 12 12 12 12 11 10 11 12 12 12 12 12 12
16 16 17 16 16 17 17 17 17 16 16 16 16 16 15 14 13 14 13 13 13 12 12 12 12 12 12 12 12 12 12 12 13 12 11 10 11 11 12 13 13 12 12
15 16 16 16 16 15 15 16 16 16 15 15 15 14 14 14 13 13 12 12 12 12 12 11 11 11 12 12 12 12 11 11 11 11 11 11 11 10 11 11 11 12 11
16 15 15 15 15 14 14 14 15 15 14 14 14 14 13 12 12 12 12 12 12 12 12 11 11 11 11 11 10 11 11 10 10 10 10 10 11 10 10 10 10 10 11
15 15 15 14 14 14 14 14 14 14 13 13 13 13 13 12 12 12 12 12 12 12 11 12 11 11 11 11 10 10 10 10 10 9 9 9 9 9 9 10 10 10 10
16 15 14 14 14 13 13 13 13 13 12 12 12 12 12 11 11 11 11 12 12 12 11 11 10 10 10 10 10 10 10 10 9 9 9 8 8 8 8 8 8 9 9
15 14 14 13 13 13 12 12 12 12 11 11 11 11 11 11 11 10 10 10 9 9 9 9 9 8 8 8 8 8 8 8 8 8 8 7 7 7 7 7 7 8 8
14 13 13 13 12 12 12 11 11 11 11 11 11 10 10 11 10 10 9 9 8 8 8 8 8 8 7 7 6 6 6 6 6 6 6 5 6 6 6 6 6 6 7
13 13 12 12 11 11 11 11 10 10 10 10 10 10 9 9 9 9 9 8 8 7 7 7 6 6 6 5 5 4 4 4 4 4 4 5 5 5 5 5 5 5 5
13 12 12 11 11 11 10 10 10 10 10 10 9 9 9 9 8 8 7 7 6 6 5 5 5 5 4 4 4 3 3 2 3 3 3 3 4 4 4 4 4 4 4
13 12 11 11 10 10 10 10 9 9 9 9 8 8 8 7 7 6 6 5 5 5 5 4 4 4 3 3 2 2 1 1 2 2 2 2 2 3 3 3 3 3 3
12 11 11 10 10 9 9 9 9 8 8 8 8 7 7 6 6 5 5 5 5 4 4 4 3 3 2 2 2 1 1 0 0 1 1 1 1 1 1 2 1 1 2
12 11 10 9 9 9 9 8 8 7 7 7 6 6 5 5 4 4 4 4 3 3 3 3 2 2 2 2 1 0 -0 -0 -0 -0 -0 -0 -1 -1 0 0 0 0 0
10 10 9 9 8 7 7 7 7 6 6 5 5 4 4 4 3 3 3 3 2 2 2 2 2 2 1 1 0 -1 -1 -2 -2 -2 -1 -2 -2 -1 -1 -1 -1 -1 -2
10 9 8 7 7 7 7 6 5 5 4 4 4 3 3 3 2 2 2 2 2 1 1 1 0 0 0 -0 -1 -2 -2 -3 -3 -2 -2 -2 -2 -2 -2 -2 -2 -3 -3
10 9 7 6 6 6 5 5 4 4 3 3 3 2 2 2 2 1 1 0 0 -0 -0 -1 -1 -1 -1 -2 -2 -3 -4 -4 -4 -4 -4 -4 -4 -4 -4 -4 -3 -4 -4
10 7 6 6 5 5 4 4 3 3 2 2 2 1 1 1 0 -0 -0 -1 -1 -1 -1 -2 -2 -2 -2 -3 -3 -4 -5 -5 -5 -5 -5 -5 -5 -5 -5 -4 -4 -4 -4
8 6 5 5 5 5 4 3 2 1 1 1 1 1 0 0 -0 -1 -1 -2 -2 -2 -2 -3 -3 -3 -3 -4 -5 -6 -6 -6 -6 -5 -5 -5 -6 -5 -5 -5 -5 -5 -5
7 6 6 5 4 3 2 1 1 1 1 1 1 -0 -1 -1 -2 -2 -2 -3 -3 -3 -4 -4 -4 -4 -5 -5 -7 -6 -6 -6 -6 -6 -6 -6 -6 -6 -5 -5 -5 -4 -3
6 6 5 4 2 2 1 1 1 1 0 -0 -0 -1 -2 -2 -2 -3 -4 -4 -4 -4 -5 -5 -5 -5 -6 -7 -7 -7 -6 -6 -6 -6 -7 -6 -6 -6 -6 -6 -6 -5 -5
4 3 3 2 1 1 0 1 1 -0 -1 -1 -1 -2 -2 -3 -3 -4 -4 -4 -4 -5 -5 -6 -6 -7 -8 -8 -8 -7 -7 -6 -7 -7 -7 -7 -7 -7 -7 -7 -7 -6 -6
4 3 2 1 1 0 1 0 -0 -1 -1 -2 -2 -2 -3 -3 -3 -4 -5 -5 -6 -7 -7 -8 -9 -9 -8 -8 -8 -8 -7 -7 -7 -7 -7 -8 -8 -8 -8 -9 -8 -7 -7
3 2 1 1 0 0 -0 -1 -2 -2 -2 -2 -3 -3 -3 -3 -4 -5 -6 -7 -7 -8 -8 -9 -9 -9 -9 -8 -8 -8 -7 -8 -7 -7 -8 -8 -9 -9 -9 -10 -9 -9 -8
1 1 0 -0 -0 -1 -1 -2 -2 -2 -3 -3 -3 -3 -4 -5 -5 -5 -6 -7 -8 -9 -9 -9 -9 -9 -9 -9 -8 -8 -8 -8 -7 -8 -8 -9 -10 -10 -11 -10 -10 -9 -9
0 -0 -1 -1 -1 -1 -1 -2 -3 -3 -3 -3 -4 -5 -5 -6 -6 -6 -6 -7 -9 -9 -9 -9 -9 -9 -9 -8 -8 -8 -8 -8 -8 -9 -10 -10 -10 -11 -11 -11 -10 -10 -9

GFSMW_850_temp_006.txt.gz
Temp
15 16 17 17 18 18 18 19 19 19 19 18 18 16 15 15 14 14 14 14 14 13 13 13 13 12 12 12 12 12 11 12 12 11 12 13 13 13 13 13 13 13 13
15 16 16 17 17 17 18 19 19 18 18 18 17 16 15 14 13 13 13 13 13 13 12 12 12 12 12 12 12 11 11 10 11 10 10 10 10 11 12 12 12 12 12
15 15 15 16 16 17 17 17 17 17 17 16 16 15 14 13 13 13 13 12 12 12 12 11 11 11 11 11 11 11 10 8 9 10 10 10 10 10 10 11 12 11 11
14 14 14 15 15 15 15 15 15 15 15 14 14 14 13 13 12 11 11 11 11 11 11 11 11 11 11 11 10 10 10 9 9 9 9 9 9 9 9 9 10 10 10
14 14 14 14 14 14 14 14 14 14 13 13 13 13 12 12 11 11 12 12 11 11 11 11 11 11 10 10 9 9 10 9 9 8 8 8 9 8 7 8 8 8 9
13 13 13 13 13 13 13 13 13 13 12 12 12 12 12 12 12 12 12 12 11 11 11 10 10 9 8 8 8 8 8 8 8 8 7 6 5 5 6 6 6 6 7
13 13 13 13 12 12 12 12 12 12 11 12 12 11 11 11 11 11 10 11 11 11 10 10 9 9 8 8 7 7 7 7 6 6 6 5 5 5 4 4 4 5 6
13 13 13 12 12 12 12 12 12 11 11 11 11 10 10 10 10 10 9 9 9 8 8 8 7 7 7 6 6 6 5 5 5 4 4 4 4 4 4 4 4 4 4
13 12 12 12 12 12 11 11 11 11 11 11 10 10 10 10 9 9 9 9 8 7 7 7 6 6 6 5 5 5 4 3 3 2 2 2 3 3 3 3 3 3 3
12 12 12 12 11 11 11 10 10 10 10 10 9 9 9 9 9 8 8 7 6 6 6 6 5 5 5 5 4 4 3 2 1 1 1 1 2 2 2 2 2 2 1
12 12 11 11 11 10 10 10 10 9 9 9 8 8 8 7 7 6 6 6 5 5 5 5 5 5 4 4 3 3 2 1 0 0 0 0 0 0 0 1 0 1 1
13 12 11 11 10 9 9 9 9 8 8 8 7 7 6 6 6 5 5 5 5 5 4 4 4 4 3 3 2 1 0 -0 -0 -1 -1 -1 -1 -1 -1 -1 -1 -1 -1
12 10 10 9 9 8 8 8 8 8 7 7 7 6 5 5 5 4 4 4 4 4 4 3 3 3 3 2 2 1 0 -1 -2 -3 -3 -2 -2 -2 -3 -2 -2 -2 -2
12 10 9 9 8 8 8 7 7 6 6 6 5 4 4 4 4 3 3 3 3 3 3 3 2 2 2 1 1 0 -0 -1 -2 -3 -3 -3 -4 -4 -4 -4 -4 -3 -3
10 10 9 8 8 7 7 6 6 5 5 5 4 3 4 3 3 3 3 2 2 2 2 1 1 1 1 -0 -1 -2 -2 -3 -4 -4 -4 -4 -4 -5 -5 -5 -5 -4 -4
10 9 8 8 7 6 6 5 5 4 4 4 3 3 3 2 2 2 2 2 1 1 1 1 0 0 -0 -1 -2 -4 -5 -5 -5 -5 -5 -5 -5 -5 -5 -5 -5 -4 -4
11 9 8 7 6 6 5 4 4 4 3 3 3 2 2 2 2 1 1 1 1 0 -0 -0 -1 -1 -2 -3 -4 -5 -6 -6 -6 -6 -6 -6 -6 -6 -6 -6 -5 -5 -5
10 8 7 6 5 5 4 4 3 3 3 2 2 2 1 1 1 0 0 0 -1 -1 -2 -2 -3 -3 -3 -4 -6 -7 -7 -7 -7 -6 -6 -6 -6 -6 -6 -6 -6 -6 -5
9 7 6 5 5 4 3 3 2 2 1 1 1 1 0 0 -0 -0 -1 -2 -2 -3 -3 -3 -4 -4 -4 -5 -7 -7 -7 -7 -7 -6 -7 -6 -7 -7 -6 -6 -7 -7 -6
7 6 5 5 4 3 3 2 2 1 1 0 1 0 -0 -1 -1 -2 -2 -3 -4 -4 -4 -4 -4 -5 -6 -7 -8 -7 -7 -7 -7 -7 -7 -7 -7 -6 -6 -7 -7 -7 -7
5 5 5 4 3 2 2 2 1 0 0 0 -0 -1 -1 -2 -2 -3 -3 -4 -4 -5 -4 -4 -5 -6 -8 -9 -8 -8 -7 -8 -7 -7 -7 -7 -7 -7 -7 -7 -8 -8 -7
5 4 3 3 2 2 1 -0 -1 -0 -0 -0 -1 -1 -2 -2 -3 -4 -4 -4 -5 -5 -5 -6 -7 -8 -9 -9 -9 -8 -8 -7 -7 -8 -7 -8 -7 -8 -8 -9 -9 -9 -8
4 3 2 2 1 0 -0 -0 -1 -0 -1 -1 -1 -2 -2 -3 -3 -4 -4 -5 -5 -6 -7 -9 -9 -9 -9 -9 -9 -9 -8 -8 -8 -8 -8 -8 -9 -9 -9 -10 -10 -10 -10
3 2 1 0 -0 -0 -1 -1 -1 -1 -1 -2 -2 -3 -3 -3 -4 -4 -5 -6 -7 -9 -9 -10 -9 -9 -9 -9 -9 -9 -8 -8 -8 -8 -8 -9 -9 -9 -10 -11 -10 -10 -11
2 1 1 0 -0 -0 -1 -1 -1 -2 -2 -3 -3 -3 -4 -4 -5 -5 -7 -8 -9 -10 -10 -9 -9 -9 -9 -9 -9 -8 -8 -8 -8 -8 -9 -10 -10 -11 -11 -11 -11 -11 -11
1 1 0 -0 -0 -1 -1 -2 -2 -3 -4 -4 -4 -4 -5 -5 -6 -7 -7 -9 -10 -10 -10 -10 -9 -9 -9 -9 -9 -9 -9 -9 -9 -10 -10 -10 -11 -11 -12 -12 -12 -11 -11

GFSMW_850_temp_009.txt.gz
Temp
14 14 16 17 17 18 18 18 19 18 18 18 17 16 16 15 14 14 13 13 13 13 12 12 12 12 11 11 11 11 11 11 10 9 9 9 9 10 11 11 11 11 12
14 14 15 16 17 17 17 18 18 18 18 17 16 15 14 13 13 12 12 12 12 12 12 11 11 11 11 11 11 10 10 10 10 7 8 9 9 10 10 10 10 10 11
14 13 15 15 15 16 17 17 17 17 16 16 15 14 13 12 12 12 12 11 11 11 11 11 11 10 10 10 10 9 9 8 9 9 7 8 9 7 8 9 9 10 10
13 14 14 14 15 14 15 15 15 15 14 14 14 13 13 12 11 11 11 11 11 11 11 11 10 10 10 9 9 9 9 8 7 8 7 7 6 6 6 8 7 7 8
13 13 13 13 13 13 14 14 14 14 13 13 12 12 12 11 11 11 11 11 11 11 10 10 10 9 9 8 8 8 8 7 6 5 5 5 5 4 4 5 6 5 6
13 12 12 12 12 12 13 13 13 12 12 12 12 12 12 11 11 11 11 11 11 11 10 10 9 9 8 8 7 7 6 6 5 5 4 2 2 3 3 3 3 3 4
12 12 12 12 12 12 12 12 12 12 11 11 11 11 11 10 10 10 10 10 10 10 9 9 8 8 7 7 6 6 6 5 5 4 3 2 1 1 1 2 2 3 3
12 11 12 11 11 11 11 11 11 11 11 11 10 10 10 10 9 9 9 8 8 8 7 7 7 7 6 6 6 5 5 4 4 3 2 1 2 1 0 1 1 1 2
11 11 11 11 11 10 11 10 10 11 10 10 10 9 9 9 9 8 8 8 7 7 6 6 6 5 5 5 4 4 4 4 3 2 2 1 1 -0 -1 0 0 -0 0
11 11 11 10 10 10 10 10 10 10 10 9 9 8 8 8 8 7 7 6 6 5 4 4 4 4 4 4 4 3 3 3 2 1 1 -0 -1 -2 -2 -1 -1 -1 -2
11 11 10 9 9 9 9 9 9 9 9 8 8 7 7 7 6 6 5 5 4 4 3 3 3 3 3 3 3 2 2 1 0 -0 -2 -3 -3 -3 -2 -3 -3 -3 -3
11 10 10 9 9 9 8 8 8 8 8 7 7 6 6 6 5 5 4 4 3 3 3 3 3 3 2 2 1 1 0 -1 -1 -3 -4 -4 -4 -4 -4 -4 -4 -5 -4
11 10 9 9 8 8 8 8 7 7 6 6 6 6 5 5 4 4 3 3 3 3 3 2 2 1 1 1 0 -0 -1 -2 -3 -4 -4 -4 -5 -5 -5 -5 -5 -5 -5
11 10 8 8 8 7 7 7 6 6 5 6 5 5 5 4 3 2 2 2 2 2 2 1 1 1 0 -0 -1 -2 -3 -4 -4 -5 -5 -5 -6 -6 -6 -5 -5 -5 -5
10 9 9 8 7 7 6 6 5 5 5 5 4 4 3 2 2 2 1 2 2 1 1 0 0 -0 -1 -2 -3 -4 -4 -5 -5 -6 -6 -6 -6 -6 -6 -6 -6 -6 -5
10 9 8 8 7 6 6 5 5 5 5 4 3 2 2 2 1 1 1 1 1 0 0 -0 -1 -1 -2 -3 -3 -4 -6 -6 -7 -7 -7 -7 -7 -7 -6 -6 -6 -5 -6
10 9 8 7 6 5 5 5 5 4 3 3 2 2 1 1 1 1 1 0 0 -0 -1 -2 -2 -3 -3 -4 -5 -7 -7 -7 -7 -7 -7 -7 -7 -7 -7 -7 -6 -6 -7
11 9 7 6 5 5 4 4 4 3 3 2 1 1 0 1 1 0 0 -0 -1 -2 -2 -3 -4 -4 -4 -5 -7 -8 -7 -8 -7 -8 -7 -7 -7 -7 -7 -7 -6 -7 -6
10 8 7 5 5 4 4 3 3 2 2 1 1 0 0 0 -0 -1 -1 -1 -2 -3 -3 -4 -4 -5 -5 -6 -8 -8 -8 -8 -8 -8 -8 -7 -7 -7 -7 -7 -8 -7 -8
9 7 5 5 4 3 3 3 2 2 1 0 0 -0 -1 -1 -1 -2 -2 -3 -3 -4 -4 -4 -5 -6 -7 -7 -9 -8 -8 -8 -8 -8 -8 -8 -7 -7 -7 -8 -8 -9 -9
7 5 4 4 3 3 2 2 1 1 0 0 -0 -1 -2 -2 -2 -2 -3 -3 -4 -4 -5 -5 -7 -7 -8 -9 -9 -8 -8 -8 -8 -8 -8 -8 -8 -7 -8 -8 -9 -9 -8
5 4 3 3 2 2 2 1 0 0 0 -0 -1 -2 -2 -2 -3 -3 -3 -4 -5 -5 -6 -7 -7 -8 -9 -9 -9 -9 -8 -8 -8 -8 -8 -8 -7 -8 -9 -9 -9 -9 -10
4 3 2 2 1 1 0 -0 0 -0 -1 -1 -1 -2 -2 -3 -3 -4 -4 -5 -6 -7 -7 -8 -10 -10 -9 -9 -10 -9 -9 -8 -8 -8 -9 -9 -9 -9 -10 -10 -10 -10 -11
3 2 2 1 1 0 0 -0 -1 -1 -1 -2 -2 -2 -3 -3 -4 -5 -5 -6 -7 -8 -9 -10 -10 -10 -9 -9 -9 -9 -9 -9 -9 -9 -9 -10 -10 -10 -11 -11 -11 -11 -12
2 1 1 1 0 0 -1 -1 -2 -2 -2 -2 -3 -3 -3 -4 -5 -6 -7 -8 -8 -9 -10 -10 -10 -10 -10 -9 -9 -9 -9 -9 -9 -9 -10 -11 -11 -11 -11 -12 -12 -12 -12
2 1 1 1 -0 -1 -2 -2 -2 -2 -3 -3 -3 -4 -5 -5 -6 -7 -7 -8 -9 -10 -10 -10 -10 -10 -10 -9 -9 -9 -9 -9 -10 -11 -12 -12 -12 -12 -12 -12 -12 -12 -12

GFSMW_850_temp_015.txt.gz
Temp
16 14 15 15 14 14 14 14 14 14 14 14 13 12 12 12 13 13 12 12 12 12 12 12 11 12 11 10 10 10 9 10 8 8 8 9 11 11 11 11 10 11 11
16 14 14 14 14 14 14 13 13 13 13 13 12 12 12 12 12 12 12 12 12 12 12 11 11 11 11 10 9 8 8 7 8 7 7 8 8 9 10 9 8 9 9
16 15 14 14 13 13 15 16 15 15 15 14 14 13 13 11 11 11 11 11 11 11 11 11 10 10 9 9 8 7 7 5 6 6 6 7 7 6 6 7 8 8 8
16 15 14 13 12 15 15 15 15 15 14 12 12 11 11 12 12 11 11 11 11 11 11 10 10 9 8 8 7 6 6 5 4 5 5 5 5 5 5 6 6 6 6
15 14 13 12 12 14 14 14 14 14 13 13 13 13 12 12 11 11 10 10 10 10 10 9 8 8 7 7 6 6 6 5 4 4 3 4 4 4 4 4 4 4 4
14 13 11 11 12 13 13 13 13 13 13 13 12 12 11 11 11 10 10 9 9 9 8 8 7 6 6 6 6 5 5 4 3 3 3 2 3 3 3 3 3 2 2
14 12 11 11 10 11 12 12 12 12 12 12 12 11 11 10 10 10 9 9 9 8 8 7 6 6 5 5 5 4 4 3 2 2 1 1 1 2 1 1 2 1 1
14 12 12 11 9 10 10 11 11 12 11 11 11 10 10 10 9 9 9 8 8 7 7 6 6 5 5 4 4 3 1 1 1 1 1 0 0 0 0 0 0 0 -0
14 13 11 10 9 9 9 10 11 11 10 10 9 9 9 9 8 8 8 7 7 6 5 5 5 4 3 3 2 1 1 0 0 0 -0 -0 -0 -1 -1 -1 -1 -1 -1
14 13 11 10 9 8 9 10 10 10 10 9 8 8 8 8 7 7 7 6 5 5 5 4 3 3 3 2 1 1 0 -1 -1 -1 -1 -1 -1 -1 -2 -2 -2 -2 -2
13 12 11 10 8 8 9 9 9 9 8 8 7 7 7 7 6 6 5 5 4 4 3 3 3 3 2 1 -0 -1 -1 -1 -2 -2 -2 -2 -2 -2 -3 -3 -3 -3 -3
13 12 11 9 8 7 8 8 8 7 7 7 7 7 6 6 5 5 4 4 3 3 3 2 2 1 0 -1 -2 -2 -2 -2 -3 -3 -3 -3 -3 -3 -4 -4 -4 -4 -4
13 12 11 9 8 7 7 7 6 6 7 6 6 6 5 5 4 4 3 3 3 2 2 1 1 -0 -1 -2 -3 -3 -3 -4 -4 -4 -4 -4 -4 -4 -4 -5 -5 -5 -5
13 12 10 9 8 7 6 6 5 6 6 6 5 5 4 4 3 3 2 2 2 2 1 0 -1 -2 -3 -3 -3 -4 -4 -5 -5 -5 -5 -5 -5 -5 -5 -5 -6 -6 -6
12 11 10 9 8 7 6 5 4 5 5 5 5 4 4 3 2 2 2 1 1 1 -0 -1 -3 -3 -3 -3 -4 -5 -6 -6 -6 -6 -5 -5 -5 -5 -5 -5 -6 -6 -6
13 12 10 9 8 7 5 4 4 5 5 4 4 4 3 2 1 1 1 1 1 -1 -2 -3 -3 -4 -4 -4 -5 -6 -7 -7 -7 -6 -5 -5 -5 -5 -5 -6 -6 -6 -6
13 11 10 9 8 6 4 3 4 4 4 4 3 3 2 1 1 1 1 -0 -1 -2 -3 -3 -4 -4 -4 -5 -6 -7 -8 -7 -7 -6 -6 -6 -6 -6 -6 -6 -6 -6 -7
12 11 9 8 6 5 3 3 4 4 3 3 2 2 1 1 1 0 -1 -1 -2 -3 -3 -4 -4 -5 -5 -6 -7 -7 -8 -7 -7 -6 -6 -6 -7 -7 -6 -7 -7 -7 -8
10 9 8 6 4 3 3 3 3 3 3 2 1 1 1 1 0 -1 -1 -2 -3 -3 -4 -4 -5 -5 -6 -6 -7 -7 -7 -7 -7 -7 -7 -7 -7 -7 -7 -7 -8 -8 -8
8 7 6 5 4 3 3 3 3 2 2 2 1 1 0 0 -1 -1 -2 -3 -3 -4 -4 -5 -5 -6 -6 -7 -7 -7 -8 -8 -8 -8 -8 -7 -7 -7 -7 -8 -8 -9 -9
8 7 6 4 2 3 3 2 2 2 1 1 1 1 -0 -1 -1 -2 -2 -3 -3 -4 -5 -6 -6 -6 -6 -7 -7 -7 -7 -8 -8 -8 -8 -8 -8 -8 -8 -8 -9 -9 -9
7 5 4 3 3 3 3 2 2 1 1 1 0 -0 -1 -1 -2 -2 -2 -3 -5 -6 -6 -6 -6 -6 -6 -7 -7 -7 -7 -8 -8 -8 -8 -8 -8 -8 -8 -9 -9 -9 -9
5 4 3 3 3 2 2 1 1 1 1 0 -1 -1 -1 -2 -3 -3 -4 -5 -6 -6 -6 -7 -7 -7 -8 -8 -8 -8 -8 -8 -8 -9 -8 -9 -9 -9 -9 -10 -9 -10 -10
4 3 3 2 2 2 1 1 1 0 -0 -1 -1 -2 -2 -2 -3 -5 -6 -6 -7 -7 -7 -8 -8 -9 -9 -9 -9 -9 -9 -9 -9 -9 -9 -9 -9 -10 -10 -11 -11 -11 -11
4 3 2 1 1 1 1 1 0 -0 -1 -2 -2 -2 -2 -3 -4 -6 -6 -7 -7 -8 -8 -9 -9 -9 -9 -9 -9 -9 -9 -9 -9 -9 -10 -10 -11 -11 -11 -11 -11 -11 -11
3 2 2 1 1 0 0 -0 -1 -1 -1 -2 -2 -3 -4 -5 -6 -6 -6 -7 -7 -8 -8 -9 -9 -9 -9 -9 -9 -9 -9 -9 -9 -10 -11 -11 -11 -12 -12 -12 -12 -12 -12

GFSMW_850_temp_021.txt.gz
Temp
17 17 16 15 15 15 15 15 15 15 15 15 14 14 14 13 12 12 12 12 12 12 12 12 12 11 11 11 10 10 10 9 9 9 9 9 9 9 9 9 9 9 9
16 16 15 14 14 14 14 14 14 14 14 14 14 14 13 12 12 12 12 12 12 12 11 11 11 11 10 10 9 8 8 8 6 5 6 5 7 8 7 7 7 7 7
16 15 14 14 14 14 13 13 13 13 14 13 13 13 12 12 12 12 12 11 11 11 11 11 10 10 9 9 8 7 6 6 6 5 4 3 3 3 5 5 5 5 4
15 15 14 14 13 13 13 13 13 13 13 13 13 13 13 12 12 11 11 11 11 11 10 10 10 9 8 7 7 6 6 5 5 5 4 3 2 1 1 3 3 2 2
16 14 14 14 13 13 13 13 13 13 12 13 13 13 12 12 11 11 11 11 10 10 9 9 8 8 7 6 6 6 5 5 4 3 3 3 2 2 -0 -1 -0 -0 0
14 13 13 13 12 12 12 12 13 13 12 12 12 12 12 11 11 10 10 10 9 9 9 8 7 7 6 5 5 5 4 4 3 3 2 1 0 -0 -0 -1 -1 -2 -2
13 13 13 12 11 11 11 12 12 12 11 12 12 11 11 11 10 9 9 9 8 8 8 7 6 5 5 5 4 4 4 3 3 2 1 1 -0 -1 -1 -2 -2 -2 -2
13 13 13 12 11 11 11 12 12 12 11 11 11 11 10 10 9 9 8 8 8 8 7 6 5 5 4 4 4 3 3 2 2 1 1 -1 -1 -1 -2 -3 -3 -3 -3
12 12 12 11 11 11 11 12 12 12 11 11 10 10 10 9 9 8 8 8 7 7 6 5 4 4 4 3 3 2 2 1 1 0 -1 -1 -2 -2 -3 -3 -4 -4 -4
12 12 11 11 10 10 10 11 11 11 11 10 9 9 9 8 8 8 7 7 7 6 5 4 4 3 3 2 2 1 1 0 -0 -1 -2 -2 -3 -3 -4 -5 -5 -5 -5
12 11 11 10 10 10 10 10 10 10 10 9 9 8 8 8 7 7 7 6 6 5 4 3 3 3 2 2 1 0 -1 -1 -2 -3 -3 -4 -4 -5 -5 -5 -5 -5 -5
12 11 11 10 9 9 9 10 9 9 9 8 8 8 7 7 6 6 6 5 5 4 3 3 2 2 1 1 0 -1 -2 -2 -3 -4 -4 -5 -5 -6 -6 -6 -6 -6 -6
12 11 10 10 9 9 9 9 8 8 8 7 7 7 6 6 6 5 5 4 4 3 3 2 2 1 0 -0 -1 -2 -3 -4 -4 -5 -5 -6 -6 -7 -7 -6 -6 -6 -6
12 11 10 10 9 9 8 8 7 7 7 6 6 6 5 5 5 5 4 3 3 2 2 1 1 0 -1 -1 -2 -4 -4 -5 -5 -5 -6 -6 -7 -7 -7 -6 -6 -7 -7
11 11 10 10 9 8 8 7 6 6 6 6 5 5 5 5 4 4 3 3 2 2 1 0 -0 -1 -1 -2 -4 -5 -5 -5 -6 -6 -6 -7 -7 -7 -7 -7 -7 -7 -7
11 11 10 10 9 8 7 6 6 5 5 5 4 4 4 4 4 3 3 2 2 1 0 -0 -1 -1 -2 -3 -5 -5 -5 -6 -6 -6 -7 -7 -7 -8 -7 -7 -7 -7 -7
11 11 11 10 9 8 7 6 6 5 5 4 4 4 3 3 3 2 2 1 1 0 -0 -1 -1 -2 -3 -4 -5 -5 -6 -6 -6 -7 -7 -8 -8 -8 -8 -8 -8 -8 -8
12 12 11 10 9 8 7 6 5 4 4 4 3 3 3 3 2 1 1 0 -0 -1 -1 -1 -2 -3 -4 -5 -6 -6 -6 -6 -7 -7 -8 -8 -8 -8 -8 -8 -8 -7 -8
13 12 11 10 9 8 7 5 5 4 3 3 3 3 2 2 1 1 0 -1 -1 -1 -1 -2 -3 -5 -5 -6 -7 -7 -7 -7 -8 -8 -8 -8 -9 -9 -8 -8 -8 -9 -9
12 11 10 9 8 7 6 5 4 3 3 2 2 2 1 1 1 -0 -1 -1 -2 -2 -3 -3 -4 -5 -6 -7 -8 -8 -8 -8 -8 -8 -8 -9 -9 -8 -8 -8 -9 -10 -9
10 10 9 8 7 6 5 4 3 3 2 2 1 1 1 0 -0 -1 -1 -2 -2 -3 -4 -5 -5 -6 -7 -7 -9 -8 -8 -8 -8 -8 -9 -9 -9 -9 -9 -9 -10 -10 -9
8 7 7 6 5 4 4 3 2 2 2 1 1 1 -0 -1 -1 -2 -2 -2 -3 -4 -5 -5 -6 -7 -8 -8 -8 -9 -8 -8 -8 -9 -9 -9 -9 -9 -10 -10 -10 -10 -10
7 6 6 4 3 3 2 2 2 1 1 1 0 -0 -1 -1 -2 -2 -2 -3 -4 -5 -5 -7 -7 -8 -8 -8 -8 -8 -8 -8 -9 -9 -9 -10 -10 -11 -11 -11 -11 -11 -11
5 5 4 4 2 2 2 1 1 1 0 -0 -0 -1 -1 -1 -2 -2 -4 -4 -5 -6 -7 -8 -8 -8 -8 -9 -9 -8 -9 -9 -9 -9 -10 -10 -11 -12 -12 -11 -11 -12 -12
4 4 3 3 2 1 1 1 0 -0 -0 -1 -1 -1 -1 -2 -3 -3 -4 -5 -5 -7 -8 -8 -9 -9 -9 -9 -8 -9 -9 -9 -10 -10 -10 -11 -12 -12 -12 -12 -12 -12 -12
3 3 2 2 1 1 0 -0 -0 -1 -1 -1 -1 -1 -2 -3 -3 -4 -4 -4 -6 -7 -8 -9 -9 -9 -9 -9 -9 -9 -9 -10 -10 -11 -12 -13 -13 -13 -13 -13 -12 -12 -12

GFSMW_850_temp_024.txt.gz
Temp
18 17 18 18 17 16 16 16 17 17 16 15 15 15 14 14 13 12 12 11 11 12 12 12 11 11 11 11 10 9 9 8 8 8 9 9 8 9 8 9 8 9 8
16 16 17 17 16 16 16 16 16 16 15 15 15 14 13 13 12 12 12 12 11 11 11 11 11 10 10 9 9 8 8 7 6 5 6 5 7 7 8 7 6 6 6
17 16 16 16 15 15 14 14 15 14 14 14 14 14 13 12 12 12 12 11 11 11 11 10 10 9 9 8 7 7 6 6 5 4 4 3 3 2 4 5 5 4 4
17 16 15 15 14 14 14 13 14 14 14 14 14 13 13 12 12 11 11 11 11 10 10 10 9 9 8 7 6 5 5 5 4 4 3 2 1 0 0 2 3 2 2
17 16 15 14 14 14 13 13 13 13 13 13 13 13 12 12 12 11 11 10 10 10 9 9 8 8 6 6 5 5 4 4 3 3 2 2 2 1 -1 -2 -1 1 2
15 14 14 13 13 13 13 13 12 12 12 12 13 13 13 12 12 11 10 10 9 9 9 8 7 6 5 5 4 4 3 3 2 2 1 1 -0 -1 -2 -2 -3 -3 -3
14 13 13 12 12 12 12 12 12 12 12 12 12 12 12 11 11 10 9 9 9 8 8 7 6 5 5 4 4 3 3 3 2 1 1 0 -1 -2 -2 -2 -3 -3 -4
13 13 13 12 12 12 12 12 12 12 12 12 11 11 11 10 10 9 9 8 8 8 7 6 5 4 4 3 3 3 2 2 1 1 0 -1 -1 -2 -2 -3 -5 -5 -5
11 12 12 12 11 11 12 12 12 11 11 11 11 10 10 9 9 9 8 8 7 7 6 5 4 4 3 3 2 2 1 1 1 0 -1 -2 -2 -3 -3 -3 -5 -6 -6
9 11 11 11 11 11 11 11 11 11 11 10 10 10 9 9 8 8 7 7 6 6 5 5 4 3 3 2 2 1 1 0 -0 -1 -2 -3 -3 -3 -3 -4 -5 -6 -6
10 11 11 10 10 10 10 10 10 10 10 10 9 9 9 8 7 7 6 6 6 5 4 4 3 3 2 1 1 0 -0 -1 -2 -3 -3 -4 -4 -5 -5 -6 -6 -6 -7
10 11 11 10 10 10 10 10 10 10 9 9 9 8 8 7 6 6 6 5 5 4 3 3 2 2 1 1 -0 -1 -2 -3 -3 -4 -4 -5 -5 -6 -6 -6 -7 -7 -7
10 10 10 9 9 9 9 9 9 8 8 8 8 7 7 6 6 5 5 5 4 3 2 2 1 1 0 -0 -1 -2 -3 -3 -4 -5 -5 -6 -6 -7 -7 -7 -7 -7 -7
11 10 9 9 9 9 9 8 8 7 7 7 6 6 6 5 5 5 4 4 3 2 2 1 1 -0 -1 -1 -2 -3 -3 -3 -5 -5 -6 -6 -7 -7 -8 -8 -7 -8 -8
9 10 10 9 9 8 8 8 7 7 6 6 6 5 5 5 4 4 3 3 2 2 1 0 -0 -1 -1 -2 -2 -3 -5 -5 -6 -6 -6 -7 -7 -8 -7 -7 -8 -8 -8
9 10 10 10 9 9 8 7 7 6 6 5 5 5 4 4 3 3 3 2 2 1 0 -1 -1 -1 -2 -2 -3 -5 -6 -6 -6 -7 -7 -7 -8 -8 -8 -8 -8 -8 -8
10 10 10 10 9 8 8 7 6 6 5 5 4 4 4 3 3 2 2 1 1 0 -0 -1 -2 -2 -2 -3 -4 -6 -6 -7 -7 -7 -8 -8 -8 -9 -9 -9 -8 -8 -8
10 11 11 10 9 8 7 7 6 5 5 4 4 3 3 3 2 2 1 0 -0 -1 -1 -2 -3 -3 -3 -4 -5 -6 -7 -7 -8 -8 -8 -9 -8 -9 -9 -8 -8 -8 -9
12 12 11 10 9 8 7 6 5 5 4 3 3 3 2 2 1 1 0 -0 -1 -1 -2 -3 -3 -4 -4 -5 -6 -8 -8 -8 -8 -8 -8 -9 -9 -9 -8 -8 -9 -9 -9
12 12 11 10 9 7 7 6 5 4 3 3 2 2 2 1 1 0 -0 -1 -2 -2 -3 -3 -4 -4 -5 -6 -7 -8 -8 -8 -8 -8 -8 -9 -9 -8 -9 -9 -10 -10 -10
11 11 10 9 8 7 6 5 4 3 3 2 2 1 1 0 0 -1 -1 -2 -2 -3 -3 -3 -4 -5 -6 -7 -8 -8 -8 -8 -8 -9 -9 -9 -9 -9 -9 -10 -10 -10 -9
10 9 9 8 6 5 5 4 3 2 2 2 1 1 0 -0 -1 -1 -2 -3 -3 -3 -3 -4 -5 -6 -7 -8 -8 -9 -8 -8 -9 -9 -9 -9 -10 -10 -11 -11 -11 -10 -10
8 7 7 5 4 4 3 3 2 2 1 1 0 0 -0 -1 -2 -2 -3 -3 -3 -3 -4 -6 -7 -8 -8 -9 -9 -9 -8 -9 -9 -9 -10 -10 -11 -11 -11 -11 -11 -11 -11
6 6 5 4 3 2 2 2 2 1 1 0 -0 -0 -1 -2 -2 -3 -3 -3 -4 -5 -6 -7 -8 -9 -9 -9 -9 -9 -9 -9 -9 -10 -10 -10 -11 -11 -11 -10 -11 -11 -12
5 5 4 4 3 2 1 1 1 0 -0 -0 -1 -1 -2 -2 -2 -3 -4 -4 -5 -6 -8 -8 -9 -9 -10 -10 -9 -9 -9 -9 -10 -10 -11 -11 -11 -11 -11 -11 -11 -12 -12
4 3 3 3 2 1 1 0 -0 -1 -1 -1 -2 -2 -2 -3 -3 -4 -3 -4 -6 -7 -7 -8 -9 -9 -10 -10 -10 -9 -10 -10 -11 -12 -12 -12 -12 -12 -12 -12 -12 -12 -12

GFSMW_850_temp_027.txt.gz
Temp
18 19 18 18 18 18 18 17 17 17 16 16 15 15 15 13 13 13 13 12 11 11 11 11 11 11 11 10 10 9 8 8 8 8 9 9 9 8 8 8 8 8 8
18 18 18 17 17 17 17 16 16 16 16 16 15 15 15 14 14 13 12 12 11 11 11 11 11 11 10 9 9 8 7 6 6 6 6 5 7 7 7 7 7 6 6
18 18 18 17 17 17 16 16 16 16 16 15 15 14 15 14 13 12 12 12 11 11 11 11 10 10 9 8 7 7 6 5 5 4 3 3 2 2 4 4 5 4 4
17 17 17 17 16 16 16 15 15 15 14 14 14 15 15 14 13 12 12 11 11 11 10 10 9 9 8 7 7 6 5 4 4 4 3 2 0 -0 0 2 3 3 3
17 17 17 16 16 15 15 14 14 14 14 14 14 14 14 13 12 12 11 11 11 10 10 9 9 8 7 6 6 5 4 4 3 2 2 1 1 0 -2 -3 -0 2 2
17 17 17 15 15 14 14 13 13 13 13 13 13 13 13 12 12 11 11 10 10 9 9 8 8 7 6 5 5 4 4 3 2 2 1 0 -1 -2 -3 -4 -3 -4 -2
14 15 15 13 14 14 13 13 13 12 12 12 12 12 12 12 12 11 10 10 9 8 8 7 7 6 5 4 4 3 3 2 2 1 0 -0 -1 -2 -3 -3 -3 -5 -4
13 14 15 14 14 14 13 12 12 12 12 12 12 11 11 11 10 10 9 9 8 8 7 7 6 5 4 4 3 3 2 2 1 0 -0 -1 -2 -3 -3 -4 -5 -6 -6
11 13 13 13 13 13 12 12 12 12 12 11 11 11 10 10 10 9 9 8 8 7 6 6 5 4 3 3 2 2 2 1 1 -0 -1 -2 -3 -3 -4 -4 -5 -6 -8
10 10 12 12 12 12 12 11 11 12 11 11 10 10 10 9 9 8 8 7 7 6 5 5 4 3 3 2 2 1 1 0 -0 -1 -2 -3 -4 -4 -5 -5 -6 -6 -7
9 9 10 11 12 11 11 11 11 11 10 10 9 9 9 8 8 7 7 7 6 5 5 4 3 3 2 2 1 1 0 -0 -1 -2 -3 -4 -5 -5 -6 -6 -6 -7 -7
7 8 10 11 10 10 10 10 10 10 10 9 9 8 8 7 7 7 6 6 5 4 3 3 2 2 2 1 0 0 -0 -1 -2 -3 -4 -5 -5 -6 -6 -7 -7 -7 -7
7 9 10 10 10 10 9 9 9 9 9 8 8 8 7 7 6 6 5 5 4 3 3 2 2 1 1 0 0 -1 -1 -2 -3 -5 -5 -6 -6 -7 -7 -7 -8 -8 -8
8 10 10 9 9 9 9 9 8 8 8 8 7 7 6 6 5 5 4 4 3 3 2 1 1 0 0 -0 -1 -1 -2 -4 -5 -5 -6 -6 -7 -7 -8 -8 -8 -8 -8
8 9 9 9 9 8 8 8 8 7 7 7 6 6 5 5 4 4 4 3 2 2 1 1 0 -0 -0 -1 -2 -3 -4 -5 -5 -6 -6 -7 -7 -8 -8 -8 -8 -8 -8
8 9 9 9 9 8 8 7 7 7 6 6 6 5 5 4 4 3 3 2 2 1 0 0 -0 -0 -1 -2 -2 -4 -5 -6 -6 -7 -7 -7 -8 -8 -8 -9 -8 -8 -8
9 9 10 10 9 8 8 7 7 6 6 5 5 4 4 3 3 3 2 1 1 0 0 -0 -1 -1 -2 -3 -3 -5 -6 -6 -7 -7 -7 -8 -8 -8 -9 -9 -9 -8 -8
9 9 10 9 9 8 7 7 6 6 5 5 4 3 3 3 2 2 1 1 0 0 -0 -1 -2 -2 -2 -4 -5 -6 -6 -7 -7 -8 -8 -8 -9 -9 -9 -8 -8 -8 -9
11 11 10 10 9 8 7 7 6 5 5 4 3 3 2 2 2 1 0 0 -0 -1 -1 -2 -2 -3 -3 -5 -5 -6 -7 -8 -8 -8 -8 -9 -9 -9 -8 -8 -9 -10 -9
11 11 10 9 9 8 7 6 5 5 4 3 3 2 2 1 1 0 -0 -1 -1 -1 -2 -2 -3 -4 -5 -5 -6 -7 -8 -8 -8 -8 -9 -9 -9 -9 -9 -9 -10 -10 -10
11 10 10 10 8 7 6 5 5 4 3 3 2 2 1 1 0 -0 -1 -1 -1 -2 -2 -3 -4 -4 -5 -6 -6 -8 -8 -8 -8 -9 -9 -9 -10 -9 -9 -10 -10 -10 -9
9 9 9 8 7 7 6 5 4 3 2 2 1 1 0 -0 -0 -1 -1 -2 -2 -3 -3 -4 -4 -4 -5 -7 -8 -9 -8 -8 -9 -9 -9 -10 -10 -10 -11 -11 -11 -10 -11
9 8 9 7 6 5 5 4 3 2 2 1 0 -0 -0 -1 -1 -1 -2 -2 -3 -4 -4 -5 -5 -6 -7 -8 -9 -9 -9 -9 -9 -9 -10 -10 -11 -11 -10 -10 -11 -12 -11
8 7 7 6 4 3 3 3 2 1 1 0 -0 -0 -1 -1 -2 -2 -3 -3 -4 -5 -5 -6 -7 -7 -8 -9 -9 -9 -9 -9 -10 -10 -10 -11 -10 -10 -10 -10 -10 -11 -12
6 6 6 5 3 2 2 1 1 0 0 -0 -1 -1 -1 -2 -2 -3 -4 -4 -5 -6 -7 -7 -8 -9 -9 -10 -9 -9 -9 -9 -10 -11 -11 -10 -10 -10 -10 -10 -11 -11 -11
5 4 4 3 2 1 1 0 -0 -0 -1 -1 -1 -1 -2 -2 -3 -3 -4 -5 -6 -6 -6 -7 -8 -9 -9 -10 -10 -10 -10 -10 -11 -11 -11 -11 -11 -12 -12 -11 -11 -11 -11

GFSMW_850_temp_030.txt.gz
Temp
16 17 18 18 19 18 19 19 19 19 18 16 16 15 14 14 13 13 12 12 12 12 11 11 11 11 11 11 11 10 9 9 9 9 9 9 9 8 8 8 8 8 8
16 17 17 18 18 17 18 18 18 17 17 16 15 15 14 13 13 13 12 11 11 12 11 11 11 11 11 10 10 9 8 7 7 6 6 6 7 7 8 7 6 6 6
15 16 17 18 18 17 18 18 17 16 16 15 15 14 14 13 13 12 11 11 11 12 11 11 10 10 10 10 9 8 7 6 6 5 4 3 3 2 4 5 5 4 4
15 16 16 17 17 17 17 16 16 15 15 14 14 14 14 14 13 13 13 11 11 11 11 10 10 10 9 9 8 7 6 5 5 4 3 2 1 -0 0 2 3 3 2
16 16 17 17 18 16 16 16 16 15 14 14 13 14 14 14 14 12 12 11 11 10 10 10 9 9 8 8 7 6 5 4 4 3 2 2 2 1 -2 -2 1 2 2
16 16 16 17 17 15 15 15 15 14 14 13 13 14 14 14 13 12 11 11 10 10 9 9 9 8 7 6 6 5 4 4 3 2 1 1 -1 -1 -3 -4 -3 -4 -2
15 15 15 16 16 15 15 14 14 14 13 12 13 13 13 13 12 11 11 10 10 9 9 8 8 7 6 5 5 4 3 3 2 2 1 0 -1 -2 -3 -4 -4 -5 -3
15 15 15 16 16 15 15 14 13 13 12 12 12 12 12 11 11 11 10 10 9 8 8 7 7 6 5 4 4 3 3 2 2 1 0 -0 -2 -2 -3 -4 -5 -6 -6
14 14 14 14 15 14 14 14 12 12 12 11 11 11 11 11 10 10 9 8 8 7 7 6 6 5 4 4 3 3 2 2 1 0 -0 -1 -2 -3 -4 -5 -5 -7 -8
13 12 12 13 13 13 13 12 12 12 11 11 11 10 10 10 9 9 8 8 7 7 6 6 5 4 3 3 2 2 1 1 0 -0 -1 -2 -3 -4 -5 -5 -6 -7 -7
13 12 10 11 13 12 12 11 11 11 11 10 10 10 9 9 8 8 7 7 6 6 5 5 4 3 3 2 2 1 1 1 0 -1 -2 -2 -4 -4 -5 -6 -7 -7 -8
9 9 9 9 11 11 11 11 10 11 10 10 9 9 9 8 7 7 6 6 6 5 5 4 3 2 2 1 1 1 1 0 -1 -1 -3 -3 -4 -5 -6 -7 -7 -8 -8
6 7 8 9 10 10 10 10 10 10 9 9 8 8 7 7 7 6 6 5 5 4 4 3 2 2 2 1 1 0 -0 -1 -2 -3 -4 -5 -6 -6 -7 -8 -8 -8 -8
6 6 7 9 10 9 10 9 9 9 8 8 8 7 7 6 6 5 5 5 4 4 3 2 2 2 1 1 0 -1 -1 -2 -3 -4 -4 -6 -7 -7 -8 -8 -8 -8 -8
5 6 7 9 9 9 9 8 8 8 8 7 7 6 6 6 5 5 4 4 3 3 2 2 1 1 0 -0 -1 -2 -2 -3 -4 -5 -6 -7 -7 -8 -8 -8 -8 -8 -8
5 6 7 8 9 8 8 8 8 7 7 7 6 6 5 5 4 4 3 3 2 2 1 1 1 0 -1 -1 -1 -2 -4 -5 -5 -6 -7 -8 -8 -8 -9 -9 -9 -8 -8
6 7 8 9 9 8 8 8 7 7 6 6 6 5 5 4 3 3 3 2 1 1 1 0 -0 -1 -1 -2 -2 -3 -4 -6 -7 -7 -8 -8 -8 -8 -9 -9 -9 -8 -9
6 7 9 8 8 8 8 7 7 6 6 5 5 4 4 3 3 2 2 1 1 1 0 -0 -1 -1 -2 -2 -3 -4 -5 -7 -8 -8 -8 -8 -8 -9 -9 -9 -8 -8 -9
8 9 9 9 8 8 8 7 6 6 5 4 4 3 3 2 2 1 1 1 0 -0 -1 -1 -1 -2 -2 -3 -4 -5 -7 -8 -8 -8 -8 -9 -9 -9 -8 -8 -9 -9 -9
9 9 9 9 9 8 7 7 6 5 4 4 3 2 2 1 1 1 1 0 -0 -1 -1 -1 -2 -3 -4 -4 -5 -7 -8 -9 -8 -9 -9 -9 -9 -9 -9 -9 -10 -10 -10
10 9 9 9 8 8 7 6 5 4 4 3 2 1 1 1 1 0 -0 -1 -1 -1 -2 -2 -3 -3 -4 -5 -6 -8 -9 -9 -9 -9 -9 -9 -10 -9 -9 -10 -10 -10 -9
8 8 9 8 7 7 6 5 4 3 3 2 1 1 1 0 -0 -1 -1 -1 -2 -2 -3 -3 -3 -4 -5 -6 -7 -8 -9 -9 -9 -9 -9 -10 -10 -10 -11 -11 -11 -10 -11
8 7 8 7 6 5 5 5 3 2 1 1 1 0 0 -0 -1 -1 -1 -2 -2 -3 -3 -4 -5 -5 -6 -7 -8 -9 -10 -9 -9 -10 -10 -10 -11 -10 -10 -10 -11 -11 -10
7 7 7 6 5 4 4 4 3 1 1 1 0 -0 -1 -1 -1 -2 -2 -2 -3 -4 -4 -5 -6 -7 -7 -8 -9 -10 -9 -9 -10 -10 -10 -10 -10 -10 -10 -10 -10 -10 -10
5 6 6 5 3 3 2 2 1 1 0 0 -0 -1 -1 -1 -2 -2 -3 -3 -4 -5 -7 -7 -8 -9 -9 -9 -10 -10 -9 -10 -10 -10 -11 -10 -10 -10 -10 -10 -10 -10 -10
5 5 4 4 2 2 1 1 0 -0 -0 -1 -1 -1 -2 -2 -2 -3 -3 -4 -5 -6 -6 -7 -8 -8 -9 -10 -10 -10 -10 -10 -11 -11 -11 -11 -11 -11 -11 -11 -10 -10 -10

GFSMW_850_temp_033.txt.gz
Temp
15 16 16 17 18 18 19 19 19 19 19 19 17 15 15 14 14 13 13 12 12 12 12 11 12 11 11 11 11 10 10 10 10 9 10 9 9 8 7 7 7 7 6
14 15 16 16 17 17 18 18 18 18 18 18 17 16 15 14 13 13 12 12 12 11 11 12 12 11 11 10 10 10 9 9 8 8 7 7 7 7 7 8 7 6 6
13 15 16 16 17 17 18 18 17 17 17 17 16 15 14 12 12 11 11 11 11 11 11 11 11 10 10 10 9 9 8 7 7 6 5 5 3 4 6 6 6 5 5
12 14 15 16 16 17 17 17 17 17 16 16 15 15 15 13 12 12 11 11 11 11 11 11 10 10 10 9 8 8 7 6 6 5 5 4 3 1 0 2 3 3 3
13 14 15 16 16 17 17 17 16 15 15 15 14 14 13 13 12 11 11 11 11 10 10 10 10 9 9 8 8 7 6 6 5 4 4 3 3 2 -0 -1 1 2 2
14 14 14 15 16 16 16 16 16 15 14 14 13 13 13 13 12 11 11 10 11 10 10 10 9 8 8 7 7 6 5 5 4 4 3 2 1 -0 -2 -4 -3 -4 -1
14 14 14 14 15 16 16 15 15 15 14 13 12 13 13 13 13 12 12 11 10 10 9 9 8 8 7 7 6 5 4 4 3 3 2 1 0 -0 -1 -3 -4 -5 -4
13 14 14 15 15 16 16 15 15 14 13 12 12 12 12 11 11 11 10 10 9 9 9 8 8 7 6 6 5 4 4 3 3 2 2 1 -0 -1 -2 -3 -5 -5 -4
14 14 14 14 14 15 16 15 15 14 13 12 11 11 11 10 10 9 9 9 9 9 8 7 7 6 6 5 4 3 3 3 2 1 1 0 -1 -2 -3 -4 -5 -6 -6
12 13 14 14 14 14 14 14 13 13 12 12 11 11 10 9 9 9 9 9 8 8 7 7 6 5 4 4 3 3 2 2 1 0 -0 -1 -2 -2 -3 -4 -5 -6 -7
13 12 13 12 13 13 12 12 12 12 12 11 10 10 9 9 9 8 8 8 8 7 6 6 5 4 4 3 3 2 2 1 0 -0 -1 -2 -3 -3 -4 -5 -6 -6 -8
10 9 10 10 10 10 10 11 11 11 11 10 9 9 9 8 8 8 7 7 7 6 5 5 4 3 3 2 2 1 1 0 0 -0 -1 -2 -4 -4 -5 -6 -6 -7 -8
7 7 7 7 8 9 10 10 10 10 10 9 9 8 8 8 7 7 7 6 5 5 4 4 3 3 2 2 1 0 0 -0 -1 -2 -3 -4 -5 -5 -6 -7 -7 -8 -8
5 5 6 6 7 8 9 9 9 9 8 8 8 8 7 7 7 6 6 5 4 4 3 3 2 2 1 1 0 -0 -0 -1 -2 -3 -4 -5 -6 -7 -7 -8 -8 -8 -8
4 4 5 6 7 8 8 8 9 8 8 7 7 7 7 6 6 5 5 4 4 3 2 2 2 1 1 0 -0 -1 -1 -2 -3 -4 -5 -6 -7 -7 -8 -8 -8 -8 -8
4 4 5 6 7 8 8 8 8 7 7 7 7 6 6 5 5 4 4 3 3 2 2 1 1 0 0 -0 -1 -2 -3 -3 -4 -5 -5 -6 -7 -8 -9 -9 -9 -8 -8
4 4 5 6 7 8 8 8 7 7 7 7 6 6 5 5 4 3 3 2 2 2 1 1 0 -0 -1 -1 -2 -2 -4 -4 -5 -5 -7 -8 -8 -9 -9 -9 -9 -8 -8
5 5 6 7 7 8 7 7 7 7 6 6 5 5 4 4 3 2 2 2 1 1 0 -0 -0 -1 -1 -2 -2 -3 -4 -5 -6 -7 -8 -8 -9 -9 -9 -9 -8 -8 -9
6 7 7 7 7 7 7 7 6 6 5 5 4 4 3 3 2 2 1 1 1 0 -0 -1 -1 -1 -2 -3 -3 -4 -5 -6 -7 -8 -8 -9 -9 -9 -8 -8 -9 -9 -10
8 8 8 7 7 7 7 6 5 5 4 4 3 3 2 2 1 1 1 0 0 -0 -1 -1 -2 -3 -3 -4 -4 -5 -7 -8 -9 -9 -9 -9 -9 -9 -9 -9 -9 -10 -10
8 8 7 7 7 7 6 5 5 4 4 3 3 2 1 1 1 1 0 -0 -1 -1 -2 -2 -2 -3 -4 -5 -5 -6 -9 -9 -9 -9 -9 -9 -10 -9 -9 -10 -10 -11 -10
7 7 7 7 6 6 5 5 4 3 3 2 2 1 1 1 0 -0 -1 -1 -1 -2 -2 -3 -3 -3 -4 -5 -6 -7 -9 -9 -9 -9 -10 -10 -9 -10 -11 -11 -11 -10 -11
6 6 7 6 5 5 5 5 3 3 2 2 1 1 1 0 -0 -1 -1 -2 -2 -3 -3 -4 -4 -4 -4 -6 -7 -8 -10 -9 -9 -10 -10 -10 -11 -10 -10 -10 -10 -10 -10
5 6 6 5 4 4 4 4 3 2 2 1 1 0 -0 -1 -1 -1 -2 -2 -3 -4 -4 -4 -5 -6 -6 -7 -8 -10 -10 -9 -10 -10 -10 -10 -10 -10 -9 -9 -9 -10 -10
4 5 5 5 3 3 3 2 2 1 1 0 -0 -0 -1 -1 -2 -2 -3 -3 -4 -5 -6 -6 -7 -8 -8 -9 -10 -10 -10 -9 -10 -10 -11 -10 -10 -10 -10 -10 -10 -10 -10
4 4 4 3 2 2 2 1 0 -0 0 -0 -1 -1 -2 -2 -2 -3 -3 -4 -4 -5 -6 -7 -8 -8 -8 -9 -10 -10 -10 -10 -11 -11 -11 -10 -11 -11 -11 -10 -10 -10 -9